Location: Buchberg
(46.9333°N, 15.8500°E)
Time: 18:27:22
(UTC+00:00)

SL-08 R/B - Pass Details

Date: 14 July 2020
Orbit: 675 x 738 km, 98.4° (Epoch: 05 August)

Event Time Altitude Azimuth Distance (km) Brightness Sun altitude
Exits shadow 01:22:18 - 155° (SSE) 2,754 6.1 -14.5°
Reaches altitude 10° 01:23:46 10° 154° (SSE) 2,163 5.6 -14.4°
Maximum altitude 01:28:28 67° 72° (ENE) 776 3.7 -14.0°
Drops below altitude 10° 01:33:18 10° 351° (N) 2,220 6.6 -13.5°
Sets 01:35:36 0° 349° (N) 3,154 7.4 -13.2°
